This is the latest recevied weather packets stored in our database for station/object IZ3LCH-13. If no packets are shown the sender has not sent any weather packets the latest 10 day(s).
| Time | Temp. | Humidity | Pressure | Rain* | Wind** | Luminosity | Snow |
|---|---|---|---|---|---|---|---|
| 1777812603 | 26.67° C | 30% | 1017.1 hPa | 0 mm | - | - | - |
| 1777812303 | 26.67° C | 31% | 1017.1 hPa | 0 mm | - | - | - |
| 1777812003 | 26.67° C | 29% | 1017.2 hPa | 0 mm | - | - | - |
| 1777811703 | 26.11° C | 32% | 1017.5 hPa | 0 mm | - | - | - |
| 1777811403 | 26.11° C | 31% | 1017.5 hPa | 0 mm | - | - | - |
| 1777811103 | 26.11° C | 31% | 1017.4 hPa | 0 mm | - | - | - |
| 1777810803 | 26.11° C | 32% | 1017.3 hPa | 0 mm | - | - | - |
| 1777810503 | 26.11° C | 32% | 1017.5 hPa | 0 mm | - | - | - |
| 1777810203 | 25.56° C | 31% | 1017.3 hPa | 0 mm | - | - | - |
| 1777809903 | 26.11° C | 30% | 1017.5 hPa | 0 mm | - | - | - |
| 1777809603 | 26.11° C | 31% | 1017.4 hPa | 0 mm | - | - | - |
| 1777809303 | 25.56° C | 34% | 1017.5 hPa | 0 mm | - | - | - |
| 1777809003 | 25.56° C | 35% | 1017.4 hPa | 0 mm | - | - | - |
| 1777808703 | 25.56° C | 33% | 1017.6 hPa | 0 mm | - | - | - |
| 1777808403 | 25.56° C | 36% | 1017.4 hPa | 0 mm | - | - | - |
| 1777808103 | 25.56° C | 34% | 1017.5 hPa | 0 mm | - | - | - |
| 1777807803 | 25.56° C | 33% | 1017.4 hPa | 0 mm | - | - | - |
| 1777807503 | 25.56° C | 32% | 1017.5 hPa | 0 mm | - | - | - |
| 1777807203 | 26.11° C | 32% | 1017.5 hPa | 0 mm | - | - | - |
| 1777806903 | 25.56° C | 34% | 1017.8 hPa | 0 mm | - | - | - |
| 1777806603 | 25.56° C | 36% | 1017.5 hPa | 0 mm | - | - | - |
| 1777806303 | 25° C | 36% | 1017.7 hPa | 0 mm | - | - | - |
| 1777806003 | 25° C | 35% | 1017.9 hPa | 0 mm | - | - | - |
| 1777805703 | 25° C | 39% | 1017.8 hPa | 0 mm | - | - | - |
| 1777805403 | 25° C | 37% | 1018 hPa | 0 mm | - | - | - |
* Rain latest hour (hover to see other rain measurements)
** Current wind speed in m/s (hover to see current wind gust speed)